Weather History for Lebanon, NH

Change the Weather History Date:

Wednesday, July 10, 2013

  Actual Average Record
Temperature  
Mean Temperature 76 °F -  
Max Temperature 82 °F 82 °F 101 °F (1988)
Min Temperature 70 °F 58 °F 42 °F (1942)
Cooling Degree Days 11    
Growing Degree Days 26 (Base 50)    
Moisture  
Dew Point 70 °F    
Average Humidity 88    
Maximum Humidity 100    
Minimum Humidity 69    
Precipitation  
Precipitation 0.69 in - - ()
Sea Level Pressure  
Sea Level Pressure 29.84 in    
Wind  
Wind Speed 2 mph (South)    
Max Wind Speed 12 mph    
Max Gust Speed -    
Visibility 6 miles    
Events Fog , Rain , Thunderstorm    
Averages and records for this station are not official NWS values.
T = Trace of Precipitation, MM = Missing Value Source: NWS Daily Summary

Daily Weather History Graph

Daily Weather History Graph

Search for Another Location

Airport:

Trip Planner

Search our weather history database for the weather conditions in past years. The results will help you decide how hot, cold, wet, or windy it might be!

Date:

Astronomy

Jul. 10, 2013 Rise Set
Actual Time 5:17 AM EDT 8:31 PM EDT
Civil Twilight 4:42 AM EDT 9:06 PM EDT
Nautical Twilight 3:57 AM EDT 9:51 PM EDT
Astronomical Twilight 3:01 AM EDT 10:46 PM EDT
Moon 7:41 AM EDT (7/10) 9:32 PM EDT (7/10)
Length of Visible Light 16h 23m
Length of Day
15h 13m
Waxing Crescent, 5% of the Moon is Illuminated
Jul 10
Waxing Crescent
Jul 15
First Quarter
Jul 22
Full
Jul 29
Last Quarter
Aug 6
New

Hourly Weather History & Observations

Time (EDT) Temp. Heat Index Dew Point Humidity Pressure Visibility Wind Dir Wind Speed Gust Speed Precip Events Conditions
12:53 AM 71.1 °F - 66.9 °F 87% 30.01 in 10.0 mi Calm Calm - N/A   Overcast
1:23 AM 71.6 °F - 66.2 °F 83% 30.03 in 9.0 mi Calm Calm - N/A   Overcast
1:53 AM 70.0 °F - 66.9 °F 90% 29.99 in 9.0 mi Calm Calm - N/A   Overcast
2:53 AM 70.0 °F - 66.9 °F 90% 29.97 in 9.0 mi Calm Calm - N/A   Overcast
3:53 AM 71.1 °F - 66.0 °F 84% 29.95 in 10.0 mi Calm Calm - N/A   Overcast
4:53 AM 70.0 °F - 66.0 °F 87% 29.95 in 10.0 mi Calm Calm - N/A   Overcast
5:53 AM 70.0 °F - 66.9 °F 90% 29.95 in 10.0 mi Calm Calm - N/A   Overcast
6:53 AM 71.1 °F - 66.0 °F 84% 29.94 in 10.0 mi SE 3.5 mph - N/A   Overcast
7:53 AM 72.0 °F - 66.0 °F 81% 29.93 in 9.0 mi Variable 3.5 mph - N/A   Overcast
8:53 AM 72.0 °F - 66.9 °F 84% 29.91 in 7.0 mi Calm Calm - N/A   Overcast
9:31 AM 71.6 °F - 66.2 °F 83% 29.94 in 4.0 mi Calm Calm - 0.01 in Rain Light Rain
9:53 AM 71.1 °F - 68.0 °F 90% 29.91 in 7.0 mi Calm Calm - 0.02 in   Overcast
10:11 AM 71.6 °F - 68.0 °F 88% 29.93 in 8.0 mi Calm Calm - N/A   Overcast
10:53 AM 73.0 °F - 68.0 °F 84% 29.90 in 10.0 mi NW 3.5 mph - N/A   Overcast
11:53 AM 75.0 °F - 70.0 °F 84% 29.87 in 10.0 mi Calm Calm - N/A   Overcast
12:06 PM 75.2 °F - 69.8 °F 83% 29.90 in 10.0 mi Calm Calm - N/A   Overcast
12:53 PM 79.0 °F - 70.0 °F 74% 29.84 in 7.0 mi South 6.9 mph - N/A   Overcast
1:53 PM 81.0 °F 84.4 °F 70.0 °F 69% 29.80 in 7.0 mi SSE 8.1 mph - N/A   Overcast
2:21 PM 82.4 °F 87.2 °F 71.6 °F 70% 29.81 in 7.0 mi SSE 5.8 mph - N/A   Scattered Clouds
2:53 PM 80.1 °F 83.2 °F 70.0 °F 71% 29.77 in 7.0 mi SE 4.6 mph - N/A   Mostly Cloudy
3:43 PM 77.0 °F - 73.4 °F 89% 29.79 in 1.8 mi SSE 3.5 mph - 0.06 in Rain Rain
3:53 PM 75.9 °F - 73.0 °F 91% 29.76 in 0.8 mi Calm Calm - 0.16 in Rain , Thunderstorm Thunderstorms and Rain
4:08 PM 75.2 °F - 73.4 °F 94% 29.80 in - West 5.8 mph - 0.19 in Rain , Thunderstorm Heavy Thunderstorms and Rain
4:17 PM 75.2 °F - 73.4 °F 94% 29.80 in 2.5 mi Variable 3.5 mph - 0.20 in Rain , Thunderstorm Light Thunderstorms and Rain
4:20 PM 75.2 °F - 73.4 °F 94% 29.80 in 2.5 mi SSE 4.6 mph - 0.20 in Rain , Thunderstorm Light Thunderstorms and Rain
4:42 PM 75.2 °F - 71.6 °F 89% 29.79 in 2.5 mi South 4.6 mph - 0.20 in Rain , Thunderstorm Light Thunderstorms and Rain
4:53 PM 75.0 °F - 72.0 °F 90% 29.75 in 2.5 mi East 3.5 mph - 0.20 in Rain , Thunderstorm Light Thunderstorms and Rain
5:00 PM 75.2 °F - 71.6 °F 89% 29.79 in 4.0 mi Calm Calm - 0.01 in Rain , Thunderstorm Light Thunderstorms and Rain
5:03 PM 75.2 °F - 71.6 °F 89% 29.80 in 1.0 mi Calm Calm - 0.08 in Rain , Thunderstorm Light Thunderstorms and Rain
5:05 PM 75.2 °F - 71.6 °F 89% 29.80 in 0.2 mi Calm Calm - 0.17 in Fog , Rain , Thunderstorm Heavy Thunderstorms and Rain
5:11 PM 73.4 °F - 73.4 °F 100% 29.79 in 0.2 mi Variable 6.9 mph - 0.31 in Fog , Rain , Thunderstorm Heavy Thunderstorms and Rain
5:14 PM 73.4 °F - 73.4 °F 100% 29.79 in 1.2 mi Variable 5.8 mph - 0.31 in Rain , Thunderstorm Thunderstorms and Rain
5:25 PM 75.2 °F - 73.4 °F 94% 29.79 in 1.2 mi South 4.6 mph - 0.31 in Rain Light Rain
5:39 PM 75.2 °F - 71.6 °F 89% 29.78 in 4.0 mi South 11.5 mph - 0.31 in   Overcast
5:53 PM 75.9 °F - 73.0 °F 91% 29.75 in 5.0 mi South 11.5 mph - 0.31 in   Mostly Cloudy
6:00 PM 75.2 °F - 73.4 °F 94% 29.77 in 5.0 mi South 8.1 mph - N/A   Mostly Cloudy
6:53 PM 75.9 °F - 73.0 °F 91% 29.75 in 6.0 mi SSE 5.8 mph - N/A   Mostly Cloudy
7:53 PM 75.9 °F - 72.0 °F 87% 29.76 in 9.0 mi South 5.8 mph - N/A   Scattered Clouds
8:53 PM 73.0 °F - 71.1 °F 93% 29.75 in 10.0 mi SSE 4.6 mph - N/A   Clear
9:53 PM 73.0 °F - 71.1 °F 93% 29.76 in 9.0 mi SW 3.5 mph - N/A   Mostly Cloudy
10:00 PM 73.4 °F - 71.6 °F 94% 29.79 in 9.0 mi SSW 5.8 mph - N/A   Mostly Cloudy
10:08 PM 73.4 °F - 71.6 °F 94% 29.80 in 9.0 mi SSW 5.8 mph - N/A   Mostly Cloudy
10:22 PM 71.6 °F - 69.8 °F 94% 29.79 in 7.0 mi South 8.1 mph - N/A   Scattered Clouds
10:53 PM 72.0 °F - 70.0 °F 93% 29.76 in 6.0 mi South 8.1 mph - N/A   Clear
11:30 PM 71.6 °F - 69.8 °F 94% 29.78 in 6.0 mi SSE 6.9 mph - N/A   Scattered Clouds
11:53 PM 72.0 °F - 70.0 °F 93% 29.75 in 7.0 mi South 8.1 mph - N/A   Partly Cloudy